Tracking 20241 objects as of 25-Jan-2020
HD Live streaming from Space Station
objects crossing your sky now

FENGYUN 1C DEB

Track FENGYUN 1C DEB now!
10-day predictions


NORAD ID: 31844
Int'l Code: 1999-025CJJ
Perigee: 778.0 km
Apogee: 945.0 km
Inclination: 100.3 °
Period: 102.0 minutes
Semi major axis: 7232 km
RCS: 0.0099 m2 (small)
Launch date: May 10, 1999
Source: People's Republic of China (PRC)
Launch site: Taiyaun Space Center, China (TSC)

Note: This is SATELLITE DEBRIS
aabbcc
Your satellite tracking list
Your tracking list is empty




NASA's NSSDC Master Catalog

Two Line Element Set (TLE):
1 31844U 99025CJJ 20024.44512988 +.00000282 +00000-0 +17516-3 0  9999
2 31844 100.3110 023.5764 0115448 051.9447 309.2069 14.11466311649576
Source of the keplerian elements: AFSPC